www.pogodaiklimat.ru

Погода и климат >> Архив погоды >> Россия >> Нижегородская область >> Нижний Новгород


АРХИВ ПОГОДЫ в Нижнем Новгороде

Время (UTC), дата Ветер
(напр.,м/с)
 
Видим.   Явления Облачность Т
(С)
Тd
(С)
f
(%)
Тe
(С)
Тes
(С)
Комфортность P
(гПа)
Po
(гПа)
Тmin
(С)
Tmax
(С)
R
(мм)
R24
(мм)
S
(см)
09 18.06 С 3-8
{8}
10 км 4/4 1000 м
[Cu hum]
+19.8 +11.1 57 +21 +29 комфорт 1006.3 988.1
12 18.06 С 3-8
{8}
10 км 5/5 600 м
[Cu Sc Ac trans]
+21.3 +9.5 47 +23 +27 комфорт 1006.0 987.8
15 18.06 С 3-8
{9}
10 км 8/5 600 м
[Cu Sc Ac trans Ci fib]
+20.3 +8.2 46 +22 +22 комфорт 1006.9 988.7 +21.3 0.4
18 18.06 штиль 0
{8}
10 км 5/0
[Ac trans Ci fib]
+14.3 +8.8 69 +14 +14 прохладно 1007.7 989.1
21 18.06 штиль 0
{3}
10 км 5/0
[Ac trans]
+14.7 +9.3 70 +14 +14 по сезону 1006.7 988.1
00 19.06 З 2-4
{4}
10 км ясно +14.4 +9.8 74 +14 +14 по сезону 1005.9 987.4
03 19.06 З 1-4
{5}
10 км ясно +15.6 +10.5 72 +16 +19 по сезону 1005.1 986.7 +13.3
06 19.06 З 1-3
{5}
10 км 8/0
[Ci ing]
+20.8 +11.2 54 +24 +34 комфорт 1003.9 985.8
09 19.06 ЮЗ 2-8
{8}
10 км 10/8 600 м
[Cb cap Ac trans Ci fib]
+20.9 +7.0 41 +23 +24 комфорт 1002.7 984.6
12 19.06 З 2-5
{11}
10 км слабый ливневой дождь 9/9 300 м
[Cb cap]
+18.1 +12.5 70 +19 +20 прохладно 1002.6 984.4
15 19.06 З 2-8
{8}
10 км в посл. час ливневой дождь 9/9 600 м
[Cb cap]
+16.4 +14.3 87 +16 +17 прохладно 1001.5 983.0 +24.5 1
18 19.06 З 2-4
{8}
10 км {ливн. осадки} 8/3 600 м
[Sc diur, vesp Ac cuf Ci ing]
+16.2 +13.5 84 +16 +16 по сезону 1001.2 982.9
21 19.06 З 1-2
{4}
10 км 3/0
[Ac lent]
+13.0 +10.5 85 +13 +13 прохладно 1001.3 982.7
00 20.06 СЗ 1-2
{4}
10 км в посл. час ливневой дождь 3/1 600 м
[Cb cap Ac trans]
+12.2 +10.9 92 +12 +12 по сезону 1001.3 982.7
03 20.06 З 2-5
{5}
10 км 3/0
[Ac lent]
+13.1 +10.4 84 +12 +14 прохладно 1001.6 983.0 +11.9 0.5
06 20.06 СЗ 2-8
{8}
10 км ясно +17.6 +8.0 53 +18 +28 по сезону 1001.7 983.4
09 20.06 СЗ 2-5
{8}
10 км в посл. час ливневой дождь 6/6 600 м
[Cb cap]
+18.7 +9.2 54 +20 +26 по сезону 1001.5 983.3
12 20.06 З 3-9
{11}
10 км {ливн. осадки} 3/3 1000 м
[Cu hum]
+20.0 +6.2 41 +21 +27 комфорт 1001.2 983.1
15 20.06 СЗ 2-6
{10}
10 км 5/3 1000 м
[Cu hum Ac cuf Ci ing]
+20.2 +4.3 35 +21 +23 комфорт 1001.1 983.0 +21.7 1
18 20.06 Ю 1-1
{6}
10 км 3/1 1000 м
[Sc diur, vesp Ac cuf]
+16.9 +6.5 50 +18 +18 по сезону 1001.4 983.1
21 20.06 В 1-1
{2}
10 км 5/0
[Ac lent Cs]
+13.8 +8.0 68 +14 +14 по сезону 1000.5 982.1
00 21.06 Ю 2-5
{7}
10 км 5/0
[Ac trans Ci fib]
+14.3 +9.0 70 +14 +14 по сезону 997.7 979.3
03 21.06 Ю 1-3
{7}
10 км слабый дождь {ливн. осадки} 10/10 300 м
[Sc]
+12.7 +11.4 92 +13 +13 прохладно 995.2 976.8 +12.7 1
06 21.06 З 1-7
{7}
10 км слабый ливневой дождь 9/9 300 м
[Cb cap]
+15.3 +12.2 82 +16 +17 прохладно 994.3 976.0 +12.3
09 21.06 ЮЗ 1-8
{9}
10 км слабый ливневой дождь 9/9 300 м
[Cb cap]
+19.8 +12.3 62 +22 +24 комфорт 993.6 975.6
12 21.06 З 3-11
{12}
10 км {ливн. осадки} 9/9 300 м
[Cb cap]
+15.8 +10.2 69 +15 +16 холодно 996.0 977.6
15 21.06 -10
{11}
10 км н/о +17.3 +6.1 48 +18 +19 по сезону 996.2 977.9 +20.9 9
18 21.06 -10
{10}
10 км н/о +14.1 +5.6 57 +13 +13 холодно 997.9 979.4
21 21.06 ЮЗ 2-6
{10}
10 км ясно +11.9 +6.2 68 +11 +11 холодно 998.1 979.5
00 22.06 ЮЗ 1-5
{6}
10 км ясно +10.3 +5.9 74 +10 +10 прохладно 997.6 978.9
03 22.06 ЮЗ 2-5
{5}
10 км 5/0
[Ci fib]
+10.8 +6.8 76 +10 +12 холодно 997.7 979.1 +9.7
06 22.06 З 1-5
{7}
10 км 10/10 300 м
[Cb cap]
+12.5 +7.1 70 +13 +13 холодно 998.3 979.8
09 22.06 З 2-7
{9}
10 км в посл. час ливневой дождь 10/8 300 м
[Cb cap Ac trans]
+12.2 +9.9 86 +11 +12 очень
холодно
999.8 981.3
12 22.06 З 3-8
{9}
10 км {ливн. осадки} 9/8 300 м
[Cb cap Ci fib]
+15.5 +7.7 60 +15 +17 холодно 1000.1 981.7
15 22.06 З 2-5
{11}
10 км в посл. час ливневой дождь 9/9 300 м
[Cb cap]
+13.0 +7.7 70 +12 +13 очень
холодно
1002.1 983.5 +16.8 0.0
18 22.06 штиль 0
{9}
10 км {ливн. осадки} 8/1 1000 м
[Sc diur, vesp Ac lent Cc]
+11.7 +7.4 75 +11 +11 холодно 1003.5 984.9
21 22.06 Ю 1-1
{2}
10 км 8/0
[Cs]
+9.2 +8.6 96 +8 +8 очень
холодно
1004.0 985.2
00 23.06 З 1-2
{2}
10 км 8/0
[Ac trans]
+9.6 +9.0 96 +9 +9 холодно 1003.9 985.1
03 23.06 штиль 0
{8}
10 км в посл. час ливневой дождь 9/6 600 м
[Cb cap Ac cast]
+9.6 +9.0 96 +9 +9 очень
холодно
1004.4 985.6 +8.5 5
06 23.06 З 1-3
{4}
10 км {ливн. осадки} 9/8 600 м
[Cb cap Ac trans]
+12.8 +9.3 79 +13 +15 холодно 1004.3 985.7
09 23.06 ЮЗ 2-5
{8}
10 км 9/9 600 м
[Cb cap]
+15.9 +6.2 52 +16 +18 прохладно 1003.4 985.0
12 23.06 ЮЗ 2-6
{10}
10 км {ливн. осадки} 6/4 600 м
[Cb cap Cs]
+15.5 +6.5 55 +16 +22 холодно 1003.1 984.7
15 23.06 З 1-4
{8}
10 км {ливн. осадки} 5/3 600 м
[Cb cap Ac trans Cs]
+15.4 +6.4 55 +16 +18 прохладно 1002.9 984.5 +19.7 1
18 23.06 ЮЗ 1-2
{5}
10 км {ливн. осадки} 5/0
[Ac trans]
+12.8 +7.3 69 +13 +13 холодно 1004.0 985.4
21 23.06 штиль 0
{2}
10 км 1/0
[Ac trans]
+9.7 +7.8 88 +9 +9 очень
холодно
1004.4 985.6
00 24.06 ЮЗ 1-1
{2}
10 км ясно +8.7 +7.4 92 +8 +8 холодно 1004.4 985.5
03 24.06 З 1-3
{4}
10 км ясно +11.1 +8.0 81 +11 +14 холодно 1004.7 986.0 +7.1
06 24.06 СЗ 1-3
{4}
10 км ясно +15.2 +7.6 60 +16 +28 опасность
простуды
1004.6 986.0
09 24.06 С 1-4
{4}
10 км 8/8 1000 м
[Cb cap]
+16.7 +6.5 51 +18 +21 прохладно 1003.9 985.6
12 24.06 С 1-4
{5}
10 км 4/4 1000 м
[Cb cap]
+18.3 +5.3 42 +20 +27 прохладно 1003.5 985.3
15 24.06 СЗ 1-4
{6}
10 км 8/5 1000 м
[Cb cap Ac trans]
+16.1 +7.3 56 +17 +18 прохладно 1004.4 986.0 +19.3
18 24.06 штиль 0
{5}
10 км 4/4 1000 м
[Sc]
+13.6 +8.0 69 +13 +13 холодно 1005.2 986.6
21 24.06 СЗ 1-2
{3}
10 км 3/3 1000 м
[Sc]
+11.5 +8.2 80 +11 +11 холодно 1005.8 987.1
00 25.06 штиль 0
{2}
10 км 4/4 1000 м
[Sc]
+9.0 +5.5 79 +8 +8 холодно 1006.6 987.6
03 25.06 штиль 0
{2}
10 км ясно +11.0 +7.3 78 +10 +14 холодно 1007.2 988.4 +7.6
06 25.06 С 1-5
{5}
10 км 6/1 1000 м
[Cu hum Ci fib]
+14.3 +5.1 54 +15 +25 прохладно 1007.2 988.5

 

Местоположение метеостанции Нижний Новгород (Нижегородская область, Россия): широта 56.27 долгота 44.00 высота над уровнем моря 157 м.

В архиве по умолчанию представлена погода в Нижнем Новгороде за последнюю неделю. Архивные данные за месяц целиком и за предыдущие месяцы, начиная с января 2011 года, Вы можете получить, выбрав интересующий диапазон дат из раскрывающегося списка и нажав кнопку "Ввод!".

Внимание! Время в таблицах - всемирное. Для получения местного времени необходимо прибавить поправку, которая в Нижнем Новгороде равна 3 ч.

Смотрите также архив погоды в соседних городах и на ближайших метеорологических станциях:

Погода в Нижнем Новгороде аэропорт (Нижегородская область, Россия) (15 км)
Погода в Дальнем Константиново (Нижегородская область, Россия) (53 км)
Погода в Волжской ГМО (Нижегородская область, Россия) (57 км)
Погода в Семенове (Нижегородская область, Россия) (60 км)
Погода в Павлово (Нижегородская область, Россия) (70 км)
Погода в Лысково (Нижегородская область, Россия) (70 км)
Погода в Арзамасе (Нижегородская область, Россия) (101 км)
Погода в Воскресенском (Нижегородская область, Россия) (106 км)
Погода в Вязниках (Владимирская область, Россия) (113 км)
Погода в Красных Баках (Нижегородская область, Россия) (119 км)

Пояснения к столбцам:

Ветер - указаны скорость ветра в м/с - средняя за 10 мин, порывы в срок и между сроками (в фигурных скобках) и направление, откуда дует ветер: С - северный, СВ - северо-восточный, В - восточный, ЮВ - юго-восточный, Ю - южный, ЮЗ - юго-западный, З - западный, СЗ - северо-западный.
Видимость - горизонтальная дальность видимости в метрах или километрах. При видимости от 1 до 10 км при отсутствии осадков обычно наблюдается дымка, при ухудшении видимости до 1 км и менее - туман. В сухую погоду видимость может ухудшаться дымом, пылью или мглою.
Явления - указаны атмосферные явления, наблюдавшиеся в срок или в последний час перед сроком; фигурными скобками обозначены явления, наблюдавшиеся между сроками (за 1-3 часа до срока); квадратными скобками обозначены град или гололедные отложения с указанием их диаметра в мм.
Облачность - указаны через наклонную черту общая и нижняя облачность в баллах и высота нижней границы облаков в метрах; квадратными скобками обозначены формы облаков: Ci - перистые, Cs - перисто-слоистые, Cc - перисто-кучевые, Ac - высококучевые, As - высокослоистые, Sc - слоисто-кучевые, Ns - слоисто-дождевые, Cu - кучевые, Cb - кучево-дождевые. Подробнее классификацию облаков см. в Атласе облаков (PDF).
T - Температура воздуха - температура, измеренная на высоте 2 м над землей.
Td - Температура точки росы - температура, при понижении до которой содержащийся в воздухе водяной пар достигнет насыщения.
f - Относительная влажность воздуха - влажноcть воздуха, измеренная на высоте 2 м над землей.
Te - Эффективная температура - температура, которую ощущает одетый по сезону человек в тени. Характеристика душности погоды. При расчете учитывается влияние влажности воздуха и скорости ветра на теплоощущения человека.
Tes - Эффективная температура на солнце - температура, которую ощущает человек, с поправкой на солнечный нагрев. Характеристика знойности погоды. Зависит от высоты солнца над горизонтом, облачности и скорости ветра. Ночью, в пасмурную погоду, а также при ветре 12 м/с и более поправка равна нулю.
P - Атмосферное давление - приведенное к уровню моря атмосферное давление.
Po - Атмосферное давление - измеренное на уровне метеостанции атмосферное давление.
Tmin - Минимальная температура - минимум температуры воздуха на высоте 2 м над землей.
Tmax - Максимальная температура - максимум температуры воздуха на высоте 2 м над землей.
R - Количество осадков - Количество выпавших осадков за период времени, мм. При наведении курсора мыши на число - период времени, за который выпало указанное количество осадков.
R24 - Количество осадков - Количество выпавших осадков за 24 часа, мм.
S - Снежный покров - Высота снежного покрова, см. При наведении курсора мыши на число - состояние снежного покрова и степень покрытия местности в баллах.